Find Starlink 30876

NORAD ID: 58404 Int'l Des: 2023-180 Owner: SPXS Country: US Constellation: starlink operational
LEOCIRCULAR

リアルタイム位置

3D地球を読み込み中...

Starlink 30876について

説明を読み込み中...

次回通過

Passes for default location (London). Set your location on the main map for personalized predictions.

高度履歴

Loading altitude history...

軌道要素

1 58404U 23180C 26130.09070677 .00000778 00000-0 37807-4 0 9994
2 58404 43.0033 66.0402 0001557 281.3719 78.6958 15.27572355137010
Epoch: May 10, 2026 • Age: 10 hours

現在のステータス

高度 482.9 km
速度 7.63 km/s
衛星直下点 2.71°N, 172.96°W
打ち上げ日 Nov 22, 2023
運用期間 2.4 years
タイプ internet

技術仕様

分類 Payload
質量 730.00 kg
乾燥質量 700.00 kg
総質量 730.00 kg
長さ 0.30 m
直径 4.10 m
スパン 29.00 m
形状 Box + pan
製造者 SPXS
バスタイプ Starlink V2M
フェーズステータス In Orbit
所有者/国 SPXS/US

Most Searched